Regional Weather Roundup
Issued by NWS Wilmington, NC

Home | Current Version | Previous Version | Text Only | Print | Product List | Glossary On
Versions: 1 2 3 4 5 6 7 8 9 10 11 12 13 14 15 16 17 18 19 20 21 22 23 24 25 26 27 28
000
ASUS42 KILM 090712
RWRILM
RWRILM
REGIONAL HOURLY WEATHER ROUNDUP
NATIONAL WEATHER SERVICE WILMINGTON NC
200 AM EST FRI DEC 09 2016

NOTE: "FAIR" INDICATES FEW OR NO CLOUDS BELOW 12,000 FEET WITH NO
SIGNIFICANT WEATHER AND/OR OBSTRUCTIONS TO VISIBILITY.

...............WFO WILMINGTON COUNTY WARNING AREA...............

......COASTAL NC AND SC COUNTIES......

CITY           SKY/WX    TMP DP  RH WIND       PRES   REMARKS
WILMINGTON     PTCLDY    39  28  64 NW10      30.24R WCI  32
N MYRTLE BEACH PTCLDY    40  33  76 NW5       30.25R
MYRTLE BEACH   PTCLDY    43  28  56 NW7       30.28R

......INLAND NC AND SC COUNTIES.......

CITY           SKY/WX    TMP DP  RH WIND       PRES   REMARKS
LUMBERTON      CLEAR     37  26  64 NW6       30.26R WCI  32
ELIZABETHTOWN  PTCLDY    40  26  56 NW6       30.25R
WHITEVILLE     PTCLDY    40  28  61 CALM      30.24S
FLORENCE       PTCLDY    40  26  57 NW6       30.28R
DARLINGTON     PTCLDY    38  24  57 NW7       30.29R WCI  33
KINGSTREE      FAIR      37  30  75 W5        30.28R WCI  34
HARTSVILLE     FAIR      36  27  69 CALM      30.28R
BENNETTSVILLE  FAIR      37  32  81 W5        30.28R WCI  34
CONWAY         FAIR      37  32  81 CALM      30.27R
GEORGETOWN     NOT AVBL
MARION         FAIR      37  23  56 N5        30.28R WCI  34

....................REST OF NORTH CAROLINA......................

.........EASTERN NC.........

CITY           SKY/WX    TMP DP  RH WIND       PRES   REMARKS
CAPE HATTERAS  CLEAR     45  26  47 NW10G26   30.17R
JACKSONVILLE   PTCLDY    38  26  62 NW5       30.23R WCI  34
MOREHEAD CITY  CLEAR     43  29  57 NW16      30.22R
KENANSVILLE    PTCLDY    37  21  52 NW5       30.24R WCI  34
NEW BERN       MOCLDY    40  21  46 NW7       30.23R
ELIZABETH CITY CLEAR     34  24  67 W10       30.19R WCI  26

.........CENTRAL NC.........

CITY           SKY/WX    TMP DP  RH WIND       PRES   REMARKS
RALEIGH DURHAM MOCLDY    37  12  35 NW5       30.25R WCI  33
ROCKY MOUNT    PTCLDY    36  19  50 NW8       30.23R WCI  30
ROANOKE RAPIDS NOT AVBL
FAYETTEVILLE   CLEAR     39  17  41 NW8       30.25R WCI  33
HOFFMAN        PTCLDY    35  20  54 NW3       30.26R

.........WESTERN NC.........

CITY           SKY/WX    TMP DP  RH WIND       PRES   REMARKS
CHARLOTTE      PTCLDY    34  14  43 NW7       30.27R WCI  28
GREENSBORO     PTCLDY    32  15  49 NW7       30.25S WCI  26
HICKORY        NOT AVBL
BOONE          NOT AVBL
ASHEVILLE      NOT AVBL

.....................REST OF SOUTH CAROLINA.....................

.........EASTERN SC.........

CITY           SKY/WX    TMP DP  RH WIND       PRES   REMARKS
CHARLESTON     CLOUDY    44  29  55 N8        30.27S
BEAUFORT MCAS  CLOUDY    46  35  65 NW8       30.28F
HILTON HEAD    CLOUDY    48  32  53 NW9       30.28F

.........CENTRAL SC.........

CITY           SKY/WX    TMP DP  RH WIND       PRES   REMARKS
COLUMBIA       CLOUDY    42  19  39 NW6       30.30R
ORANGEBURG     CLOUDY    40  24  53 NW6       30.29S
SUMTER SHAW    CLOUDY    39  22  51 NW8       30.26R WCI  33

.........WESTERN SC.........

CITY           SKY/WX    TMP DP  RH WIND       PRES   REMARKS
GREENVILLE     NOT AVBL
ROCK HILL      PTCLDY    30  20  66 CALM      30.29R
ANDERSON       CLEAR     36  17  46 NW7       30.30S WCI  30
CLEMSON        NOT AVBL
GREENWOOD      PTCLDY    30  23  75 CALM      30.31S


...................COASTAL AND OFFSHORE REPORTS..................

................LOCAL PIERS AND NC RESERVE................


STATION/POSITION TIME  SKY/WX   TEMP    WIND        PRES    VSBY
                                AIR SEA DIR/SP/G
                 (UTC)          (F)     (DEG/KT/KT) (MB)    (MI)
JOHNY MRCER PIER 0648            43 61  330/  5/  8 1022.5R
NC RESRV MASNBRO 0545            40        CALM     1022.0
OCEAN CREST PIER NOT AVBL
SPRINGMAID  PIER NOT AVBL


................COASTAL AND OFFSHORE BUOYS................


STATION/POSITION TIME  SKY/WX   TEMP    WIND        PRES    VSBY
                                AIR SEA DIR/SP/G
                 (UTC)          (F)     (DEG/KT/KT) (MB)    (MI)
DIMNDSHOAL 41025 0650            50 76  340/ 23/ 27 1020.5R
WVE H/P(F/S)=  5/ 5 SWL H/P/D(F/S/D)=  2/ 70/ 9

CAPE LOOKOUT     0600            47     320/ 18/ 22 1021.6R
ONSLOW BAY 41036 NOT AVBL
ONSLOW BAY 41064 0608            52 70  340/ 17/ 25 1022.1S
ONSLOW BAY 41159 NOT AVBL
5SE WRITBC 41038 0608            46 61  330/ 19/ 27 1022.1
MASNBO INL 41110 0659               61                N/A
WVE H/P(F/S)=  2/ 3

WILM HARBR 41108 0656               61                N/A
WVE H/P(F/S)=  3/ 3

27SE WRITB 41037 0608            52 68  340/ 17/ 25 1021.9F
FRYING PAN 41013 0700            53 74  340/ 19/ 25 1023.1
SUNST NRSH 41024 0608            47 59  330/ 10/ 14 1023.4R
CAPRS NRSH 41029 0608            50 61  360/ 12/ 16 1024.4R
EDISTO     41004 0650            56 74  350/ 17/ 23 1022.8R
WVE H/P(F/S)=  4/ 6



..........OFFSHORE BUOYS BEYOND 100 NM OFFSHORE...........
.....IN A TRIANGLE---HAT TO BERMUDA TO BAHAMAS TO HAT.....


STATION/POSITION TIME  SKY/WX   TEMP    WIND        PRES    VSBY
                                AIR SEA DIR/SP/G
                 (UTC)          (F)     (DEG/KT/KT) (MB)    (MI)
150E HAT   41001 NOT AVBL
W BERMUDA  41048 0650            71 73  240/ 16/ 17 1014.7F
WVE H/P(F/S)=  5/ 7 SWL H/P/D(F/S/D)=  3/ 40/11

ATLANTIC S 41049 0650            74 76  260/  6/  8 1018.3S
WVE H/P(F/S)=  6/10 SWL H/P/D(F/S/D)=  5/310/10

E BAHAMAS  41046 0700            76 79  190/  2/  4 1018.1
NE BAHAMAS 41047 0700            76 78  350/  2/  4 1017.3
120E CANVRL41010 NOT AVBL

END




USA.gov is the U.S. government's official web portal to all federal, state and local government web resources and services.